BEL3344 LJLJ-EBBR

Flight info

Callsign BEL3344
Flight time 1h 26m
Altitude 38000
Route MODRO1Z MODRO DCT DOL DCT SIMBA DCT KEMES DCT TEKTU DCT TESGA DCT UMUPU T880 BATTY
Aircraft A319/M-SDE3FGHIRWY/LB1

Departure

Time 2026-05-04 10:41
Airport Ljubljana Jože Pučnik Airport (LJLJ)

Arrival

Time 2026-05-04 12:07
Airport Brussels Airport (EBBR)
Time Latitude Longitude Altitude Speed Heading
2026-05-04 10:22 46.23001 14.45471 1267 ft 0 kts 37°
2026-05-04 10:33 46.22996 14.45466 1267 ft 2 kts 37°
2026-05-04 10:33 46.22984 14.45453 1266 ft 2 kts 37°
2026-05-04 10:33 46.22972 14.45439 1266 ft 2 kts 37°
2026-05-04 10:33 46.22961 14.45425 1265 ft 2 kts 70°
2026-05-04 10:34 46.22959 14.45403 1265 ft 2 kts 104°
2026-05-04 10:34 46.22962 14.45392 1265 ft 1 kts 126°
2026-05-04 10:34 46.22967 14.45383 1266 ft 0 kts 127°
2026-05-04 10:36 46.22959 14.45399 1265 ft 4 kts 129°
2026-05-04 10:36 46.22918 14.45397 1263 ft 9 kts 212°
2026-05-04 10:36 46.22858 14.45332 1259 ft 11 kts 207°
2026-05-04 10:37 46.22790 14.45398 1256 ft 14 kts 126°
2026-05-04 10:37 46.22725 14.45527 1253 ft 17 kts 127°
2026-05-04 10:37 46.22650 14.45674 1250 ft 16 kts 127°
2026-05-04 10:37 46.22576 14.45819 1244 ft 19 kts 126°
2026-05-04 10:39 46.21994 14.46956 1215 ft 23 kts 127°
2026-05-04 10:39 46.21894 14.47153 1210 ft 25 kts 127°
2026-05-04 10:39 46.21799 14.47339 1204 ft 18 kts 126°
2026-05-04 10:40 46.21732 14.47397 1203 ft 12 kts 212°
2026-05-04 10:40 46.21659 14.47318 1202 ft 14 kts 217°
2026-05-04 10:40 46.21629 14.47209 1203 ft 12 kts 301°
2026-05-04 10:40 46.21679 14.47108 1205 ft 13 kts 306°
2026-05-04 10:41 46.21854 14.46767 1214 ft 79 kts 307°
2026-05-04 10:41 46.22318 14.45862 1234 ft 143 kts 306°
2026-05-04 10:41 46.22993 14.44537 1580 ft 169 kts 304°
2026-05-04 10:41 46.23636 14.43171 2312 ft 167 kts 290°
2026-05-04 10:42 46.23618 14.41618 3037 ft 161 kts 239°
2026-05-04 10:42 46.22730 14.40615 3528 ft 176 kts 198°
2026-05-04 10:42 46.21457 14.40427 4004 ft 193 kts 187°
2026-05-04 10:42 46.20070 14.40181 4434 ft 214 kts 191°
2026-05-04 10:43 46.18570 14.39832 5178 ft 222 kts 192°
2026-05-04 10:44 46.07729 14.38673 10978 ft 246 kts 144°
2026-05-04 10:45 46.06646 14.40562 11704 ft 257 kts 117°
2026-05-04 10:45 46.06296 14.43152 12163 ft 278 kts 89°
2026-05-04 10:45 46.06485 14.45992 12642 ft 296 kts 86°
2026-05-04 10:45 46.06710 14.49035 13073 ft 314 kts 86°
2026-05-04 10:46 46.06927 14.52256 13457 ft 332 kts 87°
2026-05-04 10:46 46.07133 14.55610 13802 ft 350 kts 87°
2026-05-04 10:46 46.07343 14.59206 14136 ft 368 kts 87°
2026-05-04 10:46 46.07687 14.62912 14630 ft 380 kts 76°
2026-05-04 10:47 46.08808 14.66337 15318 ft 387 kts 56°
2026-05-04 10:47 46.10695 14.69065 16031 ft 392 kts 36°
2026-05-04 10:47 46.13188 14.70761 16709 ft 396 kts 15°
2026-05-04 10:47 46.15889 14.71119 17336 ft 399 kts 354°
2026-05-04 10:49 46.33386 14.58260 21570 ft 413 kts 330°
2026-05-04 10:49 46.35914 14.56249 22130 ft 415 kts 330°
2026-05-04 10:50 46.38441 14.54238 22674 ft 417 kts 330°
2026-05-04 10:51 46.56475 14.39858 26067 ft 431 kts 330°
2026-05-04 10:52 46.59087 14.37768 26485 ft 434 kts 330°
2026-05-04 10:52 46.61756 14.35628 26725 ft 440 kts 330°
2026-05-04 10:52 46.64427 14.33485 26998 ft 445 kts 329°
2026-05-04 10:54 46.83321 14.18256 30277 ft 439 kts 329°
2026-05-04 10:54 46.85982 14.16101 30744 ft 438 kts 329°
2026-05-04 10:56 47.04480 14.01053 33647 ft 434 kts 329°
2026-05-04 10:56 47.07116 13.98896 34015 ft 433 kts 329°
2026-05-04 10:56 47.09723 13.96762 34367 ft 433 kts 329°
2026-05-04 10:57 47.12340 13.94617 34730 ft 432 kts 329°
2026-05-04 10:57 47.14953 13.92474 35074 ft 431 kts 329°
2026-05-04 10:57 47.17583 13.90314 35402 ft 430 kts 329°
2026-05-04 10:57 47.20180 13.88179 35717 ft 430 kts 328°
2026-05-04 10:58 47.22780 13.86039 35996 ft 430 kts 328°
2026-05-04 10:58 47.25385 13.83893 36256 ft 430 kts 328°
2026-05-04 10:58 47.27991 13.81743 36503 ft 430 kts 328°
2026-05-04 10:58 47.30592 13.79594 36696 ft 431 kts 328°
2026-05-04 10:59 47.33196 13.77442 36903 ft 432 kts 328°
2026-05-04 10:59 47.35806 13.75281 37124 ft 433 kts 328°
2026-05-04 10:59 47.38428 13.73107 37336 ft 434 kts 328°
2026-05-04 10:59 47.41040 13.70941 37533 ft 434 kts 328°
2026-05-04 11:00 47.43656 13.68768 37717 ft 435 kts 328°
2026-05-04 11:01 47.62220 13.53277 38062 ft 440 kts 328°
2026-05-04 11:02 47.64849 13.51073 38057 ft 440 kts 328°
2026-05-04 11:05 48.04648 13.17376 37969 ft 440 kts 327°
2026-05-04 11:06 48.09929 13.12856 37966 ft 440 kts 327°
2026-05-04 11:06 48.15257 13.08283 37962 ft 441 kts 327°
2026-05-04 11:08 48.32313 12.89474 37962 ft 436 kts 316°
2026-05-04 11:10 48.48228 12.68428 37973 ft 436 kts 316°
2026-05-04 11:12 48.66386 12.44220 37981 ft 437 kts 315°
2026-05-04 11:12 48.70913 12.38146 37982 ft 437 kts 315°
2026-05-04 11:13 48.75455 12.32037 37978 ft 437 kts 315°
2026-05-04 11:13 48.79970 12.25949 37974 ft 437 kts 315°
2026-05-04 11:14 48.80720 12.24937 37976 ft 437 kts 315°
2026-05-04 11:16 49.02548 11.95275 37986 ft 438 kts 314°
2026-05-04 11:16 49.07072 11.89083 37981 ft 438 kts 314°
2026-05-04 11:17 49.11578 11.82900 37983 ft 438 kts 314°
2026-05-04 11:19 49.29620 11.57973 37994 ft 438 kts 314°
2026-05-04 11:19 49.34119 11.51716 37990 ft 438 kts 314°
2026-05-04 11:20 49.38605 11.45460 37989 ft 439 kts 314°
2026-05-04 11:20 49.43102 11.39171 37988 ft 439 kts 314°
2026-05-04 11:22 49.57671 11.15537 37988 ft 433 kts 300°
2026-05-04 11:22 49.59271 11.11662 37985 ft 432 kts 298°
2026-05-04 11:23 49.62367 11.03798 37980 ft 432 kts 297°
2026-05-04 11:25 49.73175 10.76072 37974 ft 432 kts 297°
2026-05-04 11:25 49.76251 10.68137 37972 ft 433 kts 297°
2026-05-04 11:27 49.90057 10.32229 37967 ft 432 kts 296°
2026-05-04 11:28 49.93089 10.24277 37969 ft 432 kts 296°
2026-05-04 11:28 49.96145 10.16236 37966 ft 432 kts 296°
2026-05-04 11:29 49.99157 10.08283 37969 ft 432 kts 296°
2026-05-04 11:29 50.02200 10.00225 37975 ft 432 kts 296°
2026-05-04 11:33 50.23245 9.43802 37963 ft 432 kts 296°
2026-05-04 11:33 50.26241 9.35663 37963 ft 431 kts 296°
2026-05-04 11:34 50.29203 9.27585 37959 ft 431 kts 295°
2026-05-04 11:34 50.32147 9.19460 37958 ft 430 kts 294°
2026-05-04 11:35 50.34646 9.11050 37953 ft 428 kts 288°
2026-05-04 11:35 50.36569 9.02295 37953 ft 425 kts 283°
2026-05-04 11:36 50.38319 8.93450 37943 ft 425 kts 283°
2026-05-04 11:36 50.40053 8.84635 37948 ft 426 kts 283°
2026-05-04 11:37 50.41786 8.75808 37944 ft 426 kts 283°
2026-05-04 11:37 50.43509 8.66996 37944 ft 425 kts 283°
2026-05-04 11:38 50.44876 8.58050 37946 ft 422 kts 277°
2026-05-04 11:38 50.45812 8.49009 37949 ft 422 kts 276°
2026-05-04 11:39 50.46710 8.39961 37948 ft 422 kts 276°
2026-05-04 11:41 50.49816 8.08156 37952 ft 422 kts 275°
2026-05-04 11:41 50.50684 7.99108 37951 ft 422 kts 275°
2026-05-04 11:42 50.51546 7.90034 37953 ft 422 kts 275°
2026-05-04 11:42 50.52399 7.80967 37953 ft 422 kts 275°
2026-05-04 11:43 50.53250 7.71847 37952 ft 422 kts 275°
2026-05-04 11:43 50.54086 7.62792 37944 ft 422 kts 275°
2026-05-04 11:44 50.54918 7.53699 37939 ft 423 kts 274°
2026-05-04 11:44 50.55687 7.44582 37908 ft 422 kts 272°
2026-05-04 11:44 50.55887 7.39953 37577 ft 420 kts 269°
2026-05-04 11:45 50.55947 7.35411 37116 ft 415 kts 268°
2026-05-04 11:45 50.55982 7.30915 36599 ft 412 kts 266°
2026-05-04 11:45 50.56013 7.26464 36085 ft 410 kts 266°
2026-05-04 11:45 50.56043 7.22002 35501 ft 410 kts 266°
2026-05-04 11:46 50.56059 7.17533 34865 ft 411 kts 265°
2026-05-04 11:46 50.55983 7.13060 34124 ft 411 kts 264°
2026-05-04 11:46 50.55889 7.08640 33420 ft 411 kts 264°
2026-05-04 11:46 50.55790 7.04155 32688 ft 411 kts 264°
2026-05-04 11:47 50.55690 6.99679 31941 ft 411 kts 264°
2026-05-04 11:47 50.55590 6.95193 31148 ft 413 kts 264°
2026-05-04 11:47 50.55486 6.90680 30313 ft 415 kts 264°
2026-05-04 11:47 50.55380 6.86218 29419 ft 417 kts 264°
2026-05-04 11:48 50.55268 6.81648 28468 ft 420 kts 264°
2026-05-04 11:48 50.55154 6.77098 27518 ft 422 kts 264°
2026-05-04 11:48 50.55132 6.72478 26791 ft 421 kts 268°
2026-05-04 11:48 50.55305 6.67982 26223 ft 417 kts 271°
2026-05-04 11:49 50.55673 6.63456 25638 ft 414 kts 275°
2026-05-04 11:49 50.56177 6.59067 25066 ft 410 kts 276°
2026-05-04 11:49 50.56702 6.54714 24474 ft 406 kts 277°
2026-05-04 11:49 50.57230 6.50369 23899 ft 402 kts 277°
2026-05-04 11:50 50.57748 6.46077 23318 ft 399 kts 277°
2026-05-04 11:50 50.58259 6.41822 22755 ft 396 kts 277°
2026-05-04 11:50 50.58761 6.37614 22212 ft 393 kts 277°
2026-05-04 11:50 50.59262 6.33401 21651 ft 391 kts 277°
2026-05-04 11:51 50.59755 6.29266 21102 ft 389 kts 277°
2026-05-04 11:51 50.60250 6.25091 20537 ft 388 kts 277°
2026-05-04 11:51 50.60746 6.20907 19940 ft 387 kts 277°
2026-05-04 11:51 50.61235 6.16756 19367 ft 387 kts 277°
2026-05-04 11:52 50.61720 6.12631 18794 ft 386 kts 277°
2026-05-04 11:52 50.62206 6.08472 18222 ft 385 kts 278°
2026-05-04 11:52 50.62682 6.04378 17667 ft 385 kts 278°
2026-05-04 11:52 50.63159 6.00269 17124 ft 383 kts 278°
2026-05-04 11:53 50.63635 5.96145 16577 ft 382 kts 278°
2026-05-04 11:53 50.64110 5.92037 16025 ft 380 kts 278°
2026-05-04 11:53 50.64623 5.87983 15486 ft 380 kts 281°
2026-05-04 11:53 50.65388 5.84020 14935 ft 380 kts 288°
2026-05-04 11:55 50.73406 5.58538 11326 ft 359 kts 296°
2026-05-04 11:55 50.74519 5.55062 10979 ft 349 kts 296°
2026-05-04 11:56 50.75575 5.51753 10797 ft 335 kts 296°
2026-05-04 11:56 50.76609 5.48506 10604 ft 322 kts 296°
2026-05-04 11:56 50.77586 5.45441 10425 ft 310 kts 296°
2026-05-04 11:56 50.78530 5.42471 10255 ft 299 kts 296°
2026-05-04 11:57 50.79443 5.39583 10071 ft 288 kts 296°
2026-05-04 11:57 50.80323 5.36805 9952 ft 277 kts 296°
2026-05-04 11:57 50.81182 5.34083 9615 ft 275 kts 296°
2026-05-04 11:57 50.82032 5.31396 9254 ft 275 kts 296°
2026-05-04 11:58 50.82889 5.28694 8893 ft 274 kts 296°
2026-05-04 11:58 50.83734 5.26016 8536 ft 273 kts 295°
2026-05-04 11:58 50.84575 5.23351 8190 ft 272 kts 295°
2026-05-04 11:58 50.85414 5.20688 7848 ft 272 kts 295°
2026-05-04 11:59 50.86261 5.17989 7502 ft 271 kts 295°
2026-05-04 11:59 50.87093 5.15345 7168 ft 270 kts 295°
2026-05-04 11:59 50.87976 5.12761 6814 ft 270 kts 300°
2026-05-04 11:59 50.88964 5.10257 6407 ft 271 kts 301°
2026-05-04 12:00 50.89959 5.07785 5998 ft 273 kts 302°
2026-05-04 12:00 50.90999 5.05206 5556 ft 275 kts 302°
2026-05-04 12:00 50.92022 5.02666 5134 ft 276 kts 302°
2026-05-04 12:00 50.93051 5.00105 4719 ft 276 kts 302°
2026-05-04 12:01 50.94077 4.97552 4307 ft 276 kts 302°
2026-05-04 12:01 50.95098 4.95011 4047 ft 270 kts 302°
2026-05-04 12:02 50.96403 4.80233 3065 ft 221 kts 250°
2026-05-04 12:03 50.95885 4.78021 3057 ft 207 kts 250°
2026-05-04 12:03 50.95396 4.75953 3063 ft 192 kts 250°
2026-05-04 12:03 50.94962 4.74109 2993 ft 179 kts 250°
2026-05-04 12:03 50.94537 4.72300 2755 ft 175 kts 250°
2026-05-04 12:04 50.94118 4.70516 2516 ft 172 kts 250°
2026-05-04 12:04 50.93708 4.68760 2284 ft 167 kts 250°
2026-05-04 12:04 50.93310 4.67056 2064 ft 163 kts 251°
2026-05-04 12:04 50.92919 4.65379 1846 ft 156 kts 251°
2026-05-04 12:05 50.92559 4.63829 1642 ft 145 kts 251°
2026-05-04 12:05 50.92235 4.62438 1473 ft 133 kts 251°
2026-05-04 12:05 50.91920 4.61076 1302 ft 131 kts 251°
2026-05-04 12:05 50.91604 4.59716 1136 ft 130 kts 251°
2026-05-04 12:06 50.91295 4.58383 964 ft 130 kts 251°
2026-05-04 12:06 50.90981 4.57026 789 ft 130 kts 251°
2026-05-04 12:06 50.90670 4.55685 614 ft 129 kts 251°
2026-05-04 12:06 50.90361 4.54354 443 ft 129 kts 250°
2026-05-04 12:07 50.90046 4.53017 272 ft 129 kts 250°
2026-05-04 12:07 50.89743 4.51673 153 ft 119 kts 249°
2026-05-04 12:07 50.89518 4.50697 153 ft 69 kts 251°
2026-05-04 12:07 50.89407 4.50216 155 ft 34 kts 249°
2026-05-04 12:08 50.89337 4.49907 156 ft 14 kts 257°
2026-05-04 12:08 50.89341 4.49747 156 ft 15 kts 290°
2026-05-04 12:08 50.89405 4.49597 153 ft 17 kts 307°
2026-05-04 12:08 50.89486 4.49429 151 ft 19 kts 308°
2026-05-04 12:09 50.89565 4.49263 154 ft 17 kts 317°
2026-05-04 12:09 50.89685 4.49277 154 ft 18 kts 15°
2026-05-04 12:09 50.89814 4.49330 153 ft 19 kts 15°
2026-05-04 12:09 50.89950 4.49386 152 ft 20 kts 15°
2026-05-04 12:10 50.90099 4.49447 145 ft 23 kts 14°
2026-05-04 12:10 50.90267 4.49515 139 ft 26 kts 15°
2026-05-04 12:10 50.90386 4.49564 133 ft 11 kts 15°
2026-05-04 12:10 50.90455 4.49518 131 ft 13 kts 266°
2026-05-04 12:11 50.90423 4.49393 135 ft 11 kts 245°
2026-05-04 12:11 50.90391 4.49283 137 ft 11 kts 245°
2026-05-04 12:11 50.90359 4.49169 138 ft 11 kts 245°
2026-05-04 12:11 50.90321 4.49038 135 ft 14 kts 245°
2026-05-04 12:12 50.90299 4.48960 135 ft 4 kts 247°
2026-05-04 12:12 50.90320 4.48912 132 ft 5 kts 334°
2026-05-04 12:12 50.90364 4.48879 129 ft 3 kts 335°
2026-05-04 12:12 50.90367 4.48877 129 ft 0 kts 335°